Location: Unspecified
(50.7822°N, 1.1356°W)
Time: 13:47:43
(UTC+01:00)

Okean 3 - Visible Passes

Search period start: 19 June 2018 00:00
Search period end: 29 June 2018 00:00
Orbit: 576 x 603 km, 82.5° (Epoch: 18 June)

Date Brightness Start Highest point End Pass type
(mag) Time Alt. Az. Time Alt. Az. Time Alt. Az.
19 Jun 5.2 03:51:08 10° N 03:54:59 34° ENE 03:58:50 10° SE visible
20 Jun 4.5 03:59:03 10° N 04:03:08 49° ENE 04:07:12 10° SSE visible
22 Jun 6.4 02:39:25 10° NNE 02:41:29 13° ENE 02:43:32 10° E visible
23 Jun 6.1 02:46:51 10° NNE 02:49:46 18° ENE 02:52:40 10° ESE visible
24 Jun 5.7 02:54:33 10° NNE 02:58:00 24° ENE 03:01:28 10° ESE visible
25 Jun 5.1 03:02:22 10° N 03:06:12 33° ENE 03:10:02 10° SE visible
26 Jun 4.5 03:10:17 10° N 03:14:22 46° ENE 03:18:26 10° SSE visible
27 Jun 3.8 03:18:17 10° N 03:22:29 67° ENE 03:26:42 10° SSE visible
28 Jun 6.2 01:50:46 10° NE 01:52:41 13° ENE 01:54:35 10° E visible
28 Jun 3.4 03:26:20 10° N 03:30:34 86° W 03:34:48 10° S visible
